User: anonymous   Login
Location: Antist
(43.1184°N, 0.1270°E)
Time: 06:23:20
(UTC+00:00)
Language:

SL-8 R/B - Orbit

View from above orbital plane
View from above orbital plane
View from above satellite
View from above satellite

Ground track
Ground track

The orbit data is extracted from the following two-line orbital elements,

1 33066U 08031G   20156.76591219 -.00000148  00000-0  80877-5 0  9993
2 33066  48.4442  81.2748 0007652  12.5983 347.5118 14.69702274642131
Epoch (UTC): 04 June 2020 18:22:54
Eccentricity: 0.0007652
inclination: 48.4442°
perigee height: 656 km
apogee height: 667 km
right ascension of ascending node: 81.2748°
argument of perigee: 12.5983°
revolutions per day: 14.69702274
mean anomaly at epoch: 347.5118°
orbit number at epoch: 64213

The dashed part of the orbit path shows where the satellite is in the earth's shadow,  

DLR